Gainesville, GA

3:43 AM EDT on August 29, 2016 (GMT -0400)
Gilmer Memorial

Weather History for KGVL - June, 2013

Change the Weather History Date:

Wednesday, June 26, 2013

  Actual Average Record
Temperature  
Mean Temperature 79 °F 78 °F  
Max Temperature 87 °F 87 °F 100 °F (1952)
Min Temperature 71 °F 69 °F 50 °F (1974)
Cooling Degree Days 14 13  
Month to date cooling degree days 266 269  
Year to date cooling degree days 411 444  
Since 1 June cooling degree days 266 269  
Growing Degree Days 28 (Base 50)    
Moisture  
Dew Point 69 °F    
Average Humidity 75    
Maximum Humidity 93    
Minimum Humidity 57    
Precipitation  
Precipitation 0.00 in 0.16 in 2.14 in (1987)
Month to date precipitation 5.78 3.78  
Year to date precipitation 20.70 26.70  
Sea Level Pressure  
Sea Level Pressure 30.03 in    
Wind  
Wind Speed 6 mph (WSW)    
Max Wind Speed 7 mph    
Max Gust Speed 16 mph    
Visibility 10 miles    
Events Thunderstorm    
T = Trace of Precipitation, MM = Missing Value Source: NWS Daily Summary

Daily Weather History Graph

Daily Weather History Graph

Search for Another Location

Airport or City:

Trip Planner

Search our weather history database for the weather conditions in past years. The results will help you decide how hot, cold, wet, or windy it might be!

Date:

Astronomy

Jun. 26, 2013 Rise Set
Actual Time 6:25 AM EDT 8:51 PM EDT
Civil Twilight 5:55 AM EDT 9:20 PM EDT
Nautical Twilight 5:19 AM EDT 9:56 PM EDT
Astronomical Twilight 4:40 AM EDT 10:36 PM EDT
Moon 11:25 PM EDT (6/26) 10:05 AM EDT (6/26)
Length of Visible Light 15h 24m
Length of Day
14h 26m
Waning Gibbous, 85% of the Moon is Illuminated
Jun 26
Waning Gibbous
Jun 30
Last Quarter
Jul 8
New
Jul 15
First Quarter
Jul 22
Full

Hourly Weather History & Observations

Time (EDT) Temp. Heat Index Dew Point Humidity Pressure Visibility Wind Dir Wind Speed Gust Speed Precip Events Conditions
12:53 AM 72.0 °F - 69.1 °F 91% 30.06 in 10.0 mi WSW 4.6 mph - N/A   Clear
1:53 AM 72.0 °F - 68.0 °F 87% 30.04 in 10.0 mi Calm Calm - N/A   Clear
2:53 AM 71.1 °F - 68.0 °F 90% 30.04 in 10.0 mi SW 4.6 mph - N/A   Clear
3:53 AM 71.1 °F - 68.0 °F 90% 30.02 in 10.0 mi West 3.5 mph - N/A   Clear
4:53 AM 71.1 °F - 68.0 °F 90% 30.03 in 10.0 mi Calm Calm - N/A   Clear
5:53 AM 72.0 °F - 68.0 °F 87% 30.05 in 10.0 mi West 4.6 mph - N/A   Scattered Clouds
6:53 AM 72.0 °F - 69.1 °F 91% 30.07 in 10.0 mi West 3.5 mph - N/A   Mostly Cloudy
7:53 AM 73.0 °F - 69.1 °F 87% 30.09 in 10.0 mi West 5.8 mph - N/A   Scattered Clouds
8:27 AM 73.4 °F - 69.8 °F 88% 30.13 in 10.0 mi WNW 4.6 mph - N/A   Scattered Clouds
8:40 AM 75.2 °F - 69.8 °F 83% 30.13 in 10.0 mi West 4.6 mph - N/A   Mostly Cloudy
8:53 AM 75.0 °F - 70.0 °F 84% 30.08 in 10.0 mi West 5.8 mph - N/A   Scattered Clouds
9:53 AM 78.1 °F - 70.0 °F 76% 30.09 in 10.0 mi WSW 9.2 mph - N/A   Unknown
10:53 AM 81.0 °F 84.9 °F 71.1 °F 72% 30.07 in - West 8.1 mph - N/A   Unknown
11:24 AM 82.4 °F 86.3 °F 69.8 °F 66% 30.11 in 10.0 mi WNW 11.5 mph - N/A   Mostly Cloudy
11:33 AM 82.4 °F 86.3 °F 69.8 °F 66% 30.10 in 10.0 mi West 8.1 mph 17.3 mph N/A   Scattered Clouds
11:53 AM 82.0 °F 85.5 °F 69.1 °F 65% 30.06 in 10.0 mi West 8.1 mph - N/A   Scattered Clouds
12:53 PM 84.0 °F 87.0 °F 68.0 °F 58% 30.06 in 10.0 mi West 8.1 mph - N/A   Partly Cloudy
1:53 PM 84.0 °F 87.8 °F 69.1 °F 61% 30.02 in 10.0 mi WSW 10.4 mph - N/A   Scattered Clouds
2:53 PM 84.9 °F 88.8 °F 69.1 °F 59% 30.01 in 10.0 mi West 10.4 mph - N/A   Clear
3:53 PM 86.0 °F 90.1 °F 69.1 °F 57% 29.99 in 10.0 mi SW 10.4 mph - N/A   Partly Cloudy
4:34 PM 84.2 °F 87.3 °F 68.0 °F 58% 30.04 in 10.0 mi WSW 8.1 mph - N/A Thunderstorm Unknown
4:49 PM 82.4 °F 85.4 °F 68.0 °F 62% 30.03 in 10.0 mi WSW 6.9 mph - N/A   Unknown
4:53 PM 82.9 °F 86.5 °F 69.1 °F 63% 29.99 in 10.0 mi West 8.1 mph - N/A   Mostly Cloudy
5:10 PM 80.6 °F 83.2 °F 68.0 °F 65% 30.04 in 10.0 mi WSW 3.5 mph - N/A Thunderstorm Thunderstorm
5:37 PM 80.6 °F 83.9 °F 69.8 °F 70% 30.03 in 10.0 mi Calm Calm - N/A   Partly Cloudy
5:53 PM 82.0 °F 85.5 °F 69.1 °F 65% 29.98 in 10.0 mi West 4.6 mph - N/A   Clear
6:53 PM 82.0 °F 85.9 °F 70.0 °F 67% 29.97 in 10.0 mi WSW 5.8 mph - N/A   Clear
7:53 PM 81.0 °F 84.9 °F 71.1 °F 72% 29.96 in 10.0 mi SW 4.6 mph - N/A   Clear
8:53 PM 79.0 °F - 72.0 °F 79% 29.95 in 10.0 mi Calm Calm - N/A   Clear
9:53 PM 78.1 °F - 72.0 °F 81% 29.96 in 10.0 mi South 4.6 mph - N/A   Clear
10:53 PM 77.0 °F - 71.1 °F 82% 29.96 in 10.0 mi South 3.5 mph - N/A   Clear
11:53 PM 75.9 °F - 71.1 °F 85% 29.96 in 10.0 mi SW 5.8 mph - N/A   Clear